^^
Datos históricos de la estación: Murcia-Puente Tocinos
Diario Informe para Marzo 7, 2019 Unidades:  Métrico    Inglés   Ambas
Diario Semanal Mensual Anual Configurable
  Máximo: Mínimo: Media:
Temperatura: 20.4 °C 12.9 °C 15.8 °C
Punto de rocio: 5.4 °C -0.8 °C 2.6 °C
Humedad: 57% 26% 42%
Velocidad viento: 18.0km/h 0.0km/h 8.1km/h
Racha viento: 29.6km/h - -
Viento- - SW
Presión: 1016.9 hPa 1012.2 hPa -
Precipitación: 0.0 mm    
Historical Graphs
 
 
Tabla de datos para Marzo 7, 2019
Hora Temperatura Punto de rocio Presión Viento Velocidad viento Racha viento Humedad Intensidad lluvia(por hora) Nubes
00:00 16.6 °C 3.9 °C 1012.3 hPa WSW 14.5 km/h 24.1 km/h 43% 0.0 mm CLR
00:05 16.6 °C 3.6 °C 1012.5 hPa WSW 14.0 km/h 22.2 km/h 42% 0.0 mm CLR
00:10 16.5 °C 3.2 °C 1012.5 hPa West 13.0 km/h 18.5 km/h 41% 0.0 mm CLR
00:15 16.6 °C 2.9 °C 1012.5 hPa SW 13.0 km/h 24.5 km/h 40% 0.0 mm CLR
00:20 16.6 °C 3.3 °C 1012.5 hPa SW 14.8 km/h 20.4 km/h 41% 0.0 mm CLR
00:25 16.5 °C 3.2 °C 1012.5 hPa WSW 14.8 km/h 20.4 km/h 41% 0.0 mm CLR
00:30 16.4 °C 3.1 °C 1012.5 hPa WNW 13.0 km/h 27.8 km/h 41% 0.0 mm CLR
00:35 16.5 °C 3.6 °C 1012.4 hPa SW 13.0 km/h 16.7 km/h 42% 0.0 mm CLR
00:40 16.4 °C 3.4 °C 1012.4 hPa WSW 14.0 km/h 18.5 km/h 42% 0.0 mm CLR
00:45 16.3 °C 3.3 °C 1012.4 hPa West 14.0 km/h 18.0 km/h 42% 0.0 mm CLR
00:50 16.3 °C 3.3 °C 1012.3 hPa SW 11.9 km/h 14.8 km/h 42% 0.0 mm CLR
00:55 16.2 °C 2.9 °C 1012.3 hPa SW 11.9 km/h 20.1 km/h 41% 0.0 mm CLR
01:00 16.2 °C 2.9 °C 1012.3 hPa WSW 12.9 km/h 20.9 km/h 41% 0.0 mm CLR
01:05 16.1 °C 2.8 °C 1012.3 hPa SSW 13.7 km/h 13.0 km/h 41% 0.0 mm CLR
01:10 16.1 °C 2.8 °C 1012.3 hPa SW 8.7 km/h 11.1 km/h 41% 0.0 mm CLR
01:15 16.1 °C 2.5 °C 1012.3 hPa SW 8.7 km/h 14.8 km/h 40% 0.0 mm CLR
01:20 16.0 °C 2.7 °C 1012.2 hPa SSW 8.7 km/h 11.1 km/h 41% 0.0 mm CLR
01:25 15.9 °C 2.7 °C 1012.2 hPa SW 8.7 km/h 11.1 km/h 41% 0.0 mm CLR
01:30 15.9 °C 2.3 °C 1012.2 hPa SSW 8.4 km/h 11.1 km/h 40% 0.0 mm CLR
01:35 15.8 °C 2.6 °C 1012.3 hPa WSW 8.4 km/h 5.6 km/h 41% 0.0 mm CLR
01:40 15.8 °C 2.2 °C 1012.3 hPa WSW 5.0 km/h 7.4 km/h 40% 0.0 mm CLR
01:45 15.8 °C 1.8 °C 1012.3 hPa SW 5.0 km/h 11.1 km/h 39% 0.0 mm CLR
01:50 15.7 °C 2.1 °C 1012.4 hPa SSE 5.8 km/h 9.3 km/h 40% 0.0 mm CLR
01:55 15.6 °C 2.4 °C 1012.4 hPa SSE 5.8 km/h 9.3 km/h 41% 0.0 mm CLR
02:00 15.3 °C 2.1 °C 1012.4 hPa SSE 8.0 km/h 11.3 km/h 41% 0.0 mm CLR
02:05 15.1 °C 2.3 °C 1012.6 hPa South 6.4 km/h 13.7 km/h 42% 0.0 mm CLR
02:10 15.1 °C 1.9 °C 1012.6 hPa South 8.7 km/h 11.1 km/h 41% 0.0 mm CLR
02:15 15.1 °C 1.9 °C 1012.6 hPa SSE 8.7 km/h 11.1 km/h 41% 0.0 mm CLR
02:20 15.1 °C 1.9 °C 1012.6 hPa South 8.4 km/h 11.1 km/h 41% 0.0 mm CLR
02:25 15.1 °C 1.9 °C 1012.6 hPa SSW 8.4 km/h 9.3 km/h 41% 0.0 mm CLR
02:30 15.1 °C 1.9 °C 1012.6 hPa SSE 6.9 km/h 5.8 km/h 41% 0.0 mm CLR
02:35 15.1 °C 1.9 °C 1012.8 hPa SSE 6.9 km/h 3.7 km/h 41% 0.0 mm CLR
02:40 15.1 °C 2.3 °C 1012.8 hPa NE 3.2 km/h 5.6 km/h 42% 0.0 mm CLR
02:45 14.9 °C 2.1 °C 1012.8 hPa NE 3.2 km/h 7.4 km/h 42% 0.0 mm CLR
02:50 14.8 °C 2.0 °C 1012.8 hPa SW 3.2 km/h 9.3 km/h 42% 0.0 mm CLR
02:55 14.8 °C 2.0 °C 1012.8 hPa WSW 3.2 km/h 11.1 km/h 42% 0.0 mm CLR
03:00 14.9 °C 2.1 °C 1012.8 hPa SW 8.0 km/h 12.9 km/h 42% 0.0 mm CLR
03:05 14.9 °C 1.8 °C 1012.6 hPa SW 7.6 km/h 14.8 km/h 41% 0.0 mm CLR
03:10 14.9 °C 1.8 °C 1012.6 hPa SW 8.7 km/h 13.0 km/h 41% 0.0 mm CLR
03:15 14.9 °C 1.8 °C 1012.6 hPa West 8.7 km/h 14.8 km/h 41% 0.0 mm CLR
03:20 15.1 °C 1.9 °C 1012.5 hPa WSW 8.4 km/h 18.5 km/h 41% 0.0 mm CLR
03:25 15.2 °C 2.0 °C 1012.5 hPa West 8.4 km/h 3.7 km/h 41% 0.0 mm CLR
03:30 14.9 °C 2.1 °C 1012.5 hPa East 5.0 km/h 13.0 km/h 42% 0.0 mm CLR
03:35 14.4 °C 1.9 °C 1012.8 hPa East 5.0 km/h 8.4 km/h 43% 0.0 mm CLR
03:40 14.1 °C 2.0 °C 1012.8 hPa ESE 6.4 km/h 7.4 km/h 44% 0.0 mm CLR
03:45 14.1 °C 2.0 °C 1012.8 hPa SE 6.4 km/h 7.4 km/h 44% 0.0 mm CLR
03:50 14.1 °C 2.0 °C 1012.7 hPa South 5.8 km/h 7.4 km/h 44% 0.0 mm CLR
03:55 14.2 °C 2.1 °C 1012.7 hPa SSW 5.8 km/h 7.4 km/h 44% 0.0 mm CLR
04:00 14.3 °C 1.9 °C 1012.7 hPa South 3.2 km/h 8.0 km/h 43% 0.0 mm CLR
04:05 14.3 °C 2.2 °C 1012.8 hPa SSW 4.7 km/h 3.7 km/h 44% 0.0 mm CLR
04:10 14.2 °C 2.1 °C 1012.8 hPa SSW 2.9 km/h 5.0 km/h 44% 0.0 mm CLR
04:15 14.2 °C 1.8 °C 1012.8 hPa SSW 2.9 km/h 7.6 km/h 43% 0.0 mm CLR
04:20 14.3 °C 1.9 °C 1012.7 hPa SW 3.2 km/h 7.4 km/h 43% 0.0 mm CLR
04:25 14.4 °C 1.9 °C 1012.7 hPa West 3.2 km/h 11.1 km/h 43% 0.0 mm CLR
04:30 14.6 °C 2.2 °C 1012.7 hPa WNW 6.4 km/h 11.1 km/h 43% 0.0 mm CLR
04:35 14.6 °C 2.2 °C 1012.8 hPa WNW 6.4 km/h 7.4 km/h 43% 0.0 mm CLR
04:40 14.3 °C 2.2 °C 1012.8 hPa WNW 6.4 km/h 7.4 km/h 44% 0.0 mm CLR
04:45 14.1 °C 2.3 °C 1012.8 hPa WNW 6.4 km/h 7.4 km/h 45% 0.0 mm CLR
04:50 13.9 °C 2.4 °C 1012.9 hPa WNW 3.9 km/h 5.6 km/h 46% 0.0 mm CLR
04:55 13.6 °C 2.5 °C 1012.9 hPa NNE 3.9 km/h 7.4 km/h 47% 0.0 mm CLR
05:00 13.2 °C 2.4 °C 1012.9 hPa NNE 3.2 km/h 8.0 km/h 48% 0.0 mm CLR
05:05 13.1 °C 2.6 °C 1013.1 hPa NE 4.7 km/h 7.4 km/h 49% 0.0 mm CLR
05:10 13.1 °C 2.6 °C 1013.1 hPa NE 4.7 km/h 5.6 km/h 49% 0.0 mm CLR
05:15 13.2 °C 2.7 °C 1013.1 hPa NE 4.7 km/h 3.7 km/h 49% 0.0 mm CLR
05:20 13.2 °C 2.4 °C 1013.4 hPa NE 2.9 km/h   48% 0.0 mm CLR
05:25 13.2 °C 2.7 °C 1013.4 hPa NE 2.9 km/h 3.7 km/h 49% 0.0 mm CLR
05:30 13.2 °C 2.7 °C 1013.4 hPa NE 2.3 km/h 3.7 km/h 49% 0.0 mm CLR
05:35 13.3 °C 2.5 °C 1013.5 hPa NNE 2.3 km/h 3.9 km/h 48% 0.0 mm CLR
05:40 13.4 °C 2.6 °C 1013.5 hPa West 2.9 km/h 5.6 km/h 48% 0.0 mm CLR
05:45 13.5 °C 2.4 °C 1013.5 hPa WNW 2.9 km/h 7.4 km/h 47% 0.0 mm CLR
05:50 13.6 °C 2.5 °C 1013.8 hPa NW 3.2 km/h 9.3 km/h 47% 0.0 mm CLR
05:55 13.6 °C 2.5 °C 1013.8 hPa NW 3.2 km/h 9.5 km/h 47% 0.0 mm CLR
06:00 13.8 °C 2.7 °C 1013.8 hPa WNW 8.0 km/h 14.5 km/h 47% 0.0 mm CLR
06:05 13.9 °C 2.4 °C 1013.9 hPa WNW 6.9 km/h 9.3 km/h 46% 0.0 mm CLR
06:10 13.8 °C 2.7 °C 1013.9 hPa WNW 6.9 km/h 9.3 km/h 47% 0.0 mm CLR
06:15 13.6 °C 2.8 °C 1013.9 hPa NW 6.9 km/h 11.1 km/h 48% 0.0 mm CLR
06:20 13.2 °C 2.7 °C 1014.1 hPa NW 6.9 km/h 13.0 km/h 49% 0.0 mm CLR
06:25 13.2 °C 2.7 °C 1014.1 hPa NNW 6.9 km/h 16.7 km/h 49% 0.0 mm CLR
06:30 13.3 °C 2.8 °C 1014.1 hPa NW 11.1 km/h 18.5 km/h 49% 0.0 mm CLR
06:35 13.5 °C 2.7 °C 1014.2 hPa WNW 11.1 km/h 20.4 km/h 48% 0.0 mm CLR
06:40 13.6 °C 2.8 °C 1014.2 hPa WNW 13.7 km/h 18.5 km/h 48% 0.0 mm CLR
06:45 13.6 °C 2.8 °C 1014.2 hPa WNW 13.7 km/h 18.5 km/h 48% 0.0 mm CLR
06:50 13.6 °C 2.8 °C 1014.4 hPa NNW 13.0 km/h 18.5 km/h 48% 0.0 mm CLR
06:55 13.6 °C 2.8 °C 1014.4 hPa NW 13.0 km/h 13.7 km/h 48% 0.0 mm CLR
07:00 13.5 °C 2.7 °C 1014.4 hPa NW 11.3 km/h 20.9 km/h 48% 0.0 mm CLR
07:05 13.4 °C 2.6 °C 1014.6 hPa WNW 11.1 km/h 16.7 km/h 48% 0.0 mm CLR
07:10 13.4 °C 2.6 °C 1014.6 hPa NW 10.0 km/h 13.0 km/h 48% 0.0 mm CLR
07:15 13.3 °C 2.8 °C 1014.6 hPa WNW 10.0 km/h 10.0 km/h 49% 0.0 mm CLR
07:20 13.3 °C 2.8 °C 1014.8 hPa WNW 7.6 km/h 13.0 km/h 49% 0.0 mm CLR
07:25 13.2 °C 2.7 °C 1014.8 hPa WNW 7.6 km/h 11.1 km/h 49% 0.0 mm CLR
07:30 13.2 °C 2.7 °C 1014.8 hPa WNW 7.6 km/h 9.3 km/h 49% 0.0 mm CLR
07:35 13.1 °C 2.6 °C 1014.8 hPa NW 7.6 km/h 7.4 km/h 49% 0.0 mm CLR
07:40 13.1 °C 2.9 °C 1014.8 hPa WNW 5.8 km/h 7.4 km/h 50% 0.0 mm CLR
07:45 13.0 °C 2.8 °C 1014.8 hPa WNW 5.8 km/h 11.1 km/h 50% 0.0 mm CLR
07:50 12.9 °C 2.7 °C 1015.0 hPa NW 6.9 km/h 11.1 km/h 50% 0.0 mm CLR
07:55 12.9 °C 2.7 °C 1015.0 hPa WNW 6.9 km/h 7.4 km/h 50% 0.0 mm CLR
08:00 12.9 °C 2.7 °C 1015.0 hPa WNW 4.8 km/h 8.0 km/h 50% 0.0 mm CLR
08:05 12.9 °C 2.7 °C 1015.3 hPa WNW 5.8 km/h 1.9 km/h 50% 0.0 mm CLR
08:10 12.9 °C 2.7 °C 1015.3 hPa WNW 2.3 km/h 7.4 km/h 50% 0.0 mm CLR
08:15 12.9 °C 2.7 °C 1015.3 hPa WNW 2.3 km/h 3.7 km/h 50% 0.0 mm CLR
08:20 13.0 °C 2.8 °C 1015.6 hPa WNW 3.2 km/h 3.7 km/h 50% 0.0 mm CLR
08:25 13.1 °C 2.9 °C 1015.6 hPa SSW 3.2 km/h 10.3 km/h 50% 0.0 mm CLR
08:30 13.1 °C 2.6 °C 1015.6 hPa SW 4.7 km/h 9.3 km/h 49% 0.0 mm CLR
08:35 13.1 °C 2.6 °C 1015.9 hPa WSW 4.7 km/h 11.1 km/h 49% 0.0 mm CLR
08:40 13.1 °C 2.6 °C 1015.9 hPa WSW 6.4 km/h 9.3 km/h 49% 0.0 mm CLR
08:45 13.2 °C 2.7 °C 1015.9 hPa West 6.4 km/h 9.3 km/h 49% 0.0 mm CLR
08:50 13.2 °C 2.7 °C 1016.1 hPa West 5.8 km/h 7.4 km/h 49% 0.0 mm CLR
08:55 13.2 °C 2.7 °C 1016.1 hPa West 5.8 km/h 7.4 km/h 49% 0.0 mm CLR
09:00 13.2 °C 2.7 °C 1016.1 hPa West 4.8 km/h 8.0 km/h 49% 0.0 mm CLR
09:05 13.2 °C 2.4 °C 1016.5 hPa West 5.0 km/h 3.7 km/h 48% 0.0 mm CLR
09:10 13.3 °C 2.5 °C 1016.5 hPa WNW 2.9 km/h 11.1 km/h 48% 0.0 mm CLR
09:15 13.3 °C 2.8 °C 1016.5 hPa West 2.9 km/h 3.7 km/h 49% 0.0 mm CLR
09:20 13.3 °C 2.5 °C 1016.7 hPa WNW 3.9 km/h   48% 0.0 mm CLR
09:25 13.3 °C 2.5 °C 1016.7 hPa SW 3.9 km/h 13.0 km/h 48% 0.0 mm CLR
09:30 13.4 °C 2.6 °C 1016.7 hPa WNW 5.0 km/h 13.0 km/h 48% 0.0 mm CLR
09:35 13.4 °C 2.6 °C 1016.9 hPa West 5.0 km/h 9.3 km/h 48% 0.0 mm CLR
09:40 13.5 °C 2.4 °C 1016.9 hPa West 9.5 km/h 16.7 km/h 47% 0.0 mm CLR
09:45 13.6 °C 2.5 °C 1016.9 hPa West 9.5 km/h 16.7 km/h 47% 0.0 mm CLR
09:50 13.7 °C 2.3 °C 1016.8 hPa NW 11.1 km/h 20.4 km/h 46% 0.0 mm CLR
09:55 13.9 °C 2.2 °C 1016.8 hPa West 11.1 km/h 20.4 km/h 45% 0.0 mm CLR
10:00 14.1 °C 2.3 °C 1016.8 hPa WNW 12.9 km/h 27.4 km/h 45% 0.0 mm CLR
10:05 14.3 °C 2.2 °C 1016.8 hPa West 13.0 km/h 22.2 km/h 44% 0.0 mm CLR
10:10 14.4 °C 1.9 °C 1016.8 hPa WNW 14.8 km/h 25.6 km/h 43% 0.0 mm CLR
10:15 14.7 °C 2.2 °C 1016.8 hPa NW 14.8 km/h 20.4 km/h 43% 0.0 mm CLR
10:20 14.9 °C 2.4 °C 1016.8 hPa West 15.6 km/h 29.6 km/h 43% 0.0 mm CLR
10:25 14.9 °C 2.1 °C 1016.8 hPa West 15.6 km/h 25.9 km/h 42% 0.0 mm CLR
10:30 15.2 °C 2.3 °C 1016.8 hPa West 16.1 km/h 24.1 km/h 42% 0.0 mm CLR
10:35 15.2 °C 2.0 °C 1016.7 hPa West 16.1 km/h 27.8 km/h 41% 0.0 mm CLR
10:40 15.3 °C 2.1 °C 1016.7 hPa WNW 16.4 km/h 22.2 km/h 41% 0.0 mm CLR
10:45 15.3 °C 2.1 °C 1016.7 hPa WSW 16.4 km/h 27.8 km/h 41% 0.0 mm CLR
10:50 15.3 °C 2.1 °C 1016.7 hPa West 18.0 km/h 22.2 km/h 41% 0.0 mm CLR
10:55 15.4 °C 1.8 °C 1016.7 hPa NW 18.0 km/h 27.8 km/h 40% 0.0 mm CLR
11:00 15.6 °C 2.0 °C 1016.7 hPa WNW 14.5 km/h 20.9 km/h 40% 0.0 mm CLR
11:05 15.6 °C 2.1 °C 1016.5 hPa North 14.8 km/h 18.5 km/h 40% 0.0 mm CLR
11:10 15.7 °C 2.1 °C 1016.5 hPa WNW 14.0 km/h 17.2 km/h 40% 0.0 mm CLR
11:15 15.7 °C 1.8 °C 1016.5 hPa NW 14.0 km/h 18.5 km/h 39% 0.0 mm CLR
11:20 15.8 °C 1.8 °C 1016.5 hPa WNW 13.7 km/h 22.2 km/h 39% 0.0 mm CLR
11:25 15.9 °C 1.6 °C 1016.5 hPa WNW 13.7 km/h 22.5 km/h 38% 0.0 mm CLR
11:30 15.9 °C 1.6 °C 1016.5 hPa NNW 16.4 km/h 18.5 km/h 38% 0.0 mm CLR
11:35 16.0 °C 1.7 °C 1016.5 hPa NNW 16.4 km/h 14.8 km/h 38% 0.0 mm CLR
11:40 16.2 °C 1.8 °C 1016.5 hPa WNW 11.1 km/h 20.4 km/h 38% 0.0 mm CLR
11:45 16.3 °C 1.6 °C 1016.5 hPa SSW 11.1 km/h 20.4 km/h 37% 0.0 mm CLR
11:50 16.4 °C 1.7 °C 1016.3 hPa West 12.2 km/h 18.5 km/h 37% 0.0 mm CLR
11:55 16.4 °C 1.7 °C 1016.3 hPa NW 12.2 km/h 18.5 km/h 37% 0.0 mm CLR
12:00 16.4 °C 1.7 °C 1016.3 hPa NW 11.3 km/h 19.3 km/h 37% 0.0 mm CLR
12:05 16.5 °C 1.4 °C 1015.9 hPa WSW 10.3 km/h 24.1 km/h 36% 0.0 mm CLR
12:10 16.4 °C 1.3 °C 1015.9 hPa SW 8.7 km/h 16.7 km/h 36% 0.0 mm CLR
12:15 16.6 °C 1.4 °C 1015.9 hPa WNW 8.7 km/h 13.0 km/h 36% 0.0 mm CLR
12:20 16.7 °C 1.6 °C 1015.7 hPa West 6.4 km/h 7.4 km/h 36% 0.0 mm CLR
12:25 16.9 °C 1.3 °C 1015.7 hPa NNW 6.4 km/h 11.1 km/h 35% 0.0 mm CLR
12:30 17.0 °C 1.4 °C 1015.7 hPa SSW 6.9 km/h 14.8 km/h 35% 0.0 mm CLR
12:35 17.1 °C 1.5 °C 1015.5 hPa WSW 6.9 km/h 14.8 km/h 35% 0.0 mm CLR
12:40 17.2 °C 1.6 °C 1015.5 hPa West 8.7 km/h 15.6 km/h 35% 0.0 mm CLR
12:45 17.2 °C 1.6 °C 1015.5 hPa SW 8.7 km/h 14.8 km/h 35% 0.0 mm CLR
12:50 17.2 °C 1.6 °C 1015.5 hPa SW 10.3 km/h 11.1 km/h 35% 0.0 mm CLR
12:55 17.4 °C 1.3 °C 1015.5 hPa WNW 10.3 km/h 13.0 km/h 34% 0.0 mm CLR
13:00 17.6 °C 1.5 °C 1015.5 hPa West 8.0 km/h 11.3 km/h 34% 0.0 mm CLR
13:05 17.6 °C 1.1 °C 1015.4 hPa SW 6.4 km/h 14.8 km/h 33% 0.0 mm CLR
13:10 17.7 °C 1.2 °C 1015.4 hPa South 5.8 km/h 7.4 km/h 33% 0.0 mm CLR
13:15 17.9 °C 1.4 °C 1015.4 hPa South 5.8 km/h 11.1 km/h 33% 0.0 mm CLR
13:20 17.9 °C 0.9 °C 1015.1 hPa WSW 6.9 km/h 16.4 km/h 32% 0.0 mm CLR
13:25 17.8 °C 0.4 °C 1015.1 hPa SW 6.9 km/h 14.8 km/h 31% 0.0 mm CLR
13:30 17.8 °C 0.4 °C 1015.1 hPa WSW 11.9 km/h 13.0 km/h 31% 0.0 mm CLR
13:35 17.9 °C 0.5 °C 1015.0 hPa West 11.9 km/h 9.3 km/h 31% 0.0 mm CLR
13:40 17.9 °C 0.1 °C 1015.0 hPa West 8.4 km/h 13.0 km/h 30% 0.0 mm CLR
13:45 18.1 °C 0.2 °C 1015.0 hPa West 8.4 km/h 7.4 km/h 30% 0.0 mm CLR
13:50 18.4 °C 0.0 °C 1014.6 hPa NNW 5.0 km/h 11.1 km/h 29% 0.0 mm CLR
13:55 18.6 °C 0.2 °C 1014.6 hPa NNE 5.0 km/h 12.2 km/h 29% 0.0 mm CLR
14:00 18.7 °C 0.3 °C 1014.6 hPa NW 8.0 km/h 16.1 km/h 29% 0.0 mm CLR
14:05 18.8 °C -0.6 °C 1014.4 hPa West 6.4 km/h 16.7 km/h 27% 0.0 mm CLR
14:10 18.6 °C -0.8 °C 1014.4 hPa SW 7.6 km/h 14.8 km/h 27% 0.0 mm CLR
14:15 18.6 °C -0.3 °C 1014.4 hPa South 7.6 km/h 9.3 km/h 28% 0.0 mm CLR
14:20 18.7 °C -0.2 °C 1014.0 hPa West 8.4 km/h 7.4 km/h 28% 0.0 mm CLR
14:25 18.9 °C 0.0 °C 1014.0 hPa West 8.4 km/h 16.7 km/h 28% 0.0 mm CLR
14:30 19.1 °C 0.2 °C 1014.0 hPa West 8.4 km/h 20.4 km/h 28% 0.0 mm CLR
14:35 18.9 °C 0.0 °C 1013.8 hPa WNW 8.4 km/h 17.2 km/h 28% 0.0 mm CLR
14:40 18.8 °C -0.1 °C 1013.8 hPa WSW 11.9 km/h 20.4 km/h 28% 0.0 mm CLR
14:45 18.8 °C -0.1 °C 1013.8 hPa NW 11.9 km/h 13.0 km/h 28% 0.0 mm CLR
14:50 18.9 °C 0.0 °C 1013.6 hPa WNW 8.4 km/h 9.3 km/h 28% 0.0 mm CLR
14:55 19.0 °C 0.1 °C 1013.6 hPa WNW 8.4 km/h 14.8 km/h 28% 0.0 mm CLR
15:00 18.9 °C 0.0 °C 1013.6 hPa WNW 8.0 km/h 11.3 km/h 28% 0.0 mm CLR
15:05 19.0 °C 0.6 °C 1013.4 hPa South 7.6 km/h 9.3 km/h 29% 0.0 mm CLR
15:10 19.3 °C 0.3 °C 1013.4 hPa SW 6.4 km/h 14.8 km/h 28% 0.0 mm CLR
15:15 19.4 °C 0.4 °C 1013.4 hPa West 6.4 km/h 9.3 km/h 28% 0.0 mm CLR
15:20 19.6 °C 0.6 °C 1013.2 hPa SW 8.4 km/h 14.8 km/h 28% 0.0 mm CLR
15:25 19.3 °C 0.3 °C 1013.2 hPa SSE 8.4 km/h 3.9 km/h 28% 0.0 mm CLR
15:30 19.4 °C 0.4 °C 1013.2 hPa NE 6.4 km/h 3.7 km/h 28% 0.0 mm CLR
15:35 19.6 °C 0.6 °C 1013.1 hPa East 6.4 km/h 5.6 km/h 28% 0.0 mm CLR
15:40 19.8 °C 0.2 °C 1013.1 hPa SW 3.2 km/h 11.1 km/h 27% 0.0 mm CLR
15:45 19.7 °C 0.2 °C 1013.1 hPa East 3.2 km/h 11.1 km/h 27% 0.0 mm CLR
15:50 19.7 °C 0.2 °C 1013.1 hPa NE 6.4 km/h 16.7 km/h 27% 0.0 mm CLR
15:55 19.5 °C 0.0 °C 1013.1 hPa NW 6.4 km/h 11.1 km/h 27% 0.0 mm CLR
16:00 19.4 °C -0.1 °C 1013.1 hPa NNW 8.0 km/h 12.9 km/h 27% 0.0 mm CLR
16:05 19.3 °C -0.2 °C 1013.1 hPa WNW 6.9 km/h 13.0 km/h 27% 0.0 mm CLR
16:10 19.4 °C 0.4 °C 1013.1 hPa West 5.8 km/h 9.3 km/h 28% 0.0 mm CLR
16:15 19.7 °C 0.7 °C 1013.1 hPa SSW 5.8 km/h 11.1 km/h 28% 0.0 mm CLR
16:20 19.7 °C 0.2 °C 1012.9 hPa South 8.4 km/h 13.0 km/h 27% 0.0 mm CLR
16:25 19.8 °C 0.2 °C 1012.9 hPa SW 8.4 km/h 3.7 km/h 27% 0.0 mm CLR
16:30 20.0 °C -0.1 °C 1012.9 hPa West 5.0 km/h 7.4 km/h 26% 0.0 mm CLR
16:35 20.1 °C 0.5 °C 1013.0 hPa NNE 5.0 km/h 5.6 km/h 27% 0.0 mm CLR
16:40 20.2 °C 0.6 °C 1013.0 hPa NNE 3.9 km/h 7.4 km/h 27% 0.0 mm CLR
16:45 20.3 °C 0.7 °C 1013.0 hPa ENE 3.9 km/h 11.1 km/h 27% 0.0 mm CLR
16:50 20.4 °C 0.2 °C 1012.9 hPa West 3.9 km/h 7.4 km/h 26% 0.0 mm CLR
16:55 20.3 °C 0.2 °C 1012.9 hPa NE 3.9 km/h 7.4 km/h 26% 0.0 mm CLR
17:00 20.2 °C 0.1 °C 1012.9 hPa ENE 4.8 km/h 9.7 km/h 26% 0.0 mm CLR
17:05 19.9 °C 2.7 °C 1012.8 hPa South 5.0 km/h 16.7 km/h 32% 0.0 mm CLR
17:10 19.7 °C 2.9 °C 1012.8 hPa South 9.5 km/h 22.5 km/h 33% 0.0 mm CLR
17:15 19.4 °C 3.6 °C 1012.8 hPa ESE 9.5 km/h 20.4 km/h 35% 0.0 mm CLR
17:20 19.3 °C 3.8 °C 1012.9 hPa South 14.8 km/h 22.2 km/h 36% 0.0 mm CLR
17:25 19.1 °C 4.4 °C 1012.9 hPa SSE 14.8 km/h 29.6 km/h 38% 0.0 mm CLR
17:30 18.8 °C 4.6 °C 1012.9 hPa South 18.0 km/h 20.4 km/h 39% 0.0 mm CLR
17:35 18.7 °C 4.4 °C 1013.0 hPa South 18.0 km/h 19.0 km/h 39% 0.0 mm CLR
17:40 18.6 °C 4.7 °C 1013.0 hPa SSE 17.2 km/h 27.8 km/h 40% 0.0 mm CLR
17:45 18.4 °C 4.6 °C 1013.0 hPa South 17.2 km/h 20.4 km/h 40% 0.0 mm CLR
17:50 18.5 °C 4.3 °C 1013.1 hPa SSE 14.8 km/h 14.8 km/h 39% 0.0 mm CLR
17:55 18.5 °C 4.3 °C 1013.1 hPa SSE 14.8 km/h 20.4 km/h 39% 0.0 mm CLR
18:00 18.6 °C 4.7 °C 1013.1 hPa South 11.3 km/h 24.1 km/h 40% 0.0 mm CLR
18:05 18.4 °C 4.6 °C 1013.1 hPa SE 11.1 km/h 20.4 km/h 40% 0.0 mm CLR
18:10 18.3 °C 4.8 °C 1013.1 hPa SSE 14.8 km/h 22.2 km/h 41% 0.0 mm CLR
18:15 18.1 °C 5.0 °C 1013.1 hPa South 14.8 km/h 19.8 km/h 42% 0.0 mm CLR
18:20 18.1 °C 5.0 °C 1013.3 hPa SSE 13.0 km/h 18.5 km/h 42% 0.0 mm CLR
18:25 17.8 °C 5.1 °C 1013.3 hPa South 13.0 km/h 20.4 km/h 43% 0.0 mm CLR
18:30 17.7 °C 4.9 °C 1013.3 hPa South 13.7 km/h 18.5 km/h 43% 0.0 mm CLR
18:35 17.6 °C 5.2 °C 1013.4 hPa SSW 13.7 km/h 16.7 km/h 44% 0.0 mm CLR
18:40 17.4 °C 5.0 °C 1013.4 hPa South 12.2 km/h 22.2 km/h 44% 0.0 mm CLR
18:45 17.1 °C 4.7 °C 1013.4 hPa South 12.2 km/h 14.8 km/h 44% 0.0 mm CLR
18:50 17.1 °C 4.7 °C 1013.5 hPa SSE 13.0 km/h 14.8 km/h 44% 0.0 mm CLR
18:55 16.9 °C 4.6 °C 1013.5 hPa SSE 13.0 km/h 24.1 km/h 44% 0.0 mm CLR
19:00 16.8 °C 4.4 °C 1013.5 hPa SSE 12.9 km/h 20.9 km/h 44% 0.0 mm CLR
19:05 16.6 °C 4.6 °C 1013.7 hPa South 13.0 km/h 16.7 km/h 45% 0.0 mm CLR
19:10 16.5 °C 4.5 °C 1013.7 hPa SSE 11.1 km/h 14.8 km/h 45% 0.0 mm CLR
19:15 16.4 °C 4.7 °C 1013.7 hPa SSE 11.1 km/h 11.1 km/h 46% 0.0 mm CLR
19:20 16.4 °C 5.1 °C 1013.9 hPa SSE 8.4 km/h 11.1 km/h 47% 0.0 mm CLR
19:25 16.2 °C 5.2 °C 1013.9 hPa South 8.4 km/h 14.8 km/h 48% 0.0 mm CLR
19:30 16.2 °C 5.4 °C 1013.9 hPa South 8.7 km/h 16.7 km/h 49% 0.0 mm CLR
19:35 16.1 °C 5.4 °C 1014.1 hPa SW 8.7 km/h 11.1 km/h 49% 0.0 mm CLR
19:40 16.1 °C 5.4 °C 1014.1 hPa South 8.7 km/h 10.0 km/h 49% 0.0 mm CLR
19:45 16.0 °C 5.3 °C 1014.1 hPa WSW 8.7 km/h 7.4 km/h 49% 0.0 mm CLR
19:50 16.0 °C 5.3 °C 1014.5 hPa WSW 5.8 km/h 5.6 km/h 49% 0.0 mm CLR
19:55 16.0 °C 4.7 °C 1014.5 hPa SW 5.8 km/h 7.4 km/h 47% 0.0 mm CLR
20:00 15.9 °C 4.3 °C 1014.5 hPa WSW 3.2 km/h 9.7 km/h 46% 0.0 mm CLR
20:05 15.9 °C 4.3 °C 1014.7 hPa SSW 4.7 km/h 7.4 km/h 46% 0.0 mm CLR
20:10 15.9 °C 4.3 °C 1014.7 hPa SSW 5.0 km/h 5.6 km/h 46% 0.0 mm CLR
20:15 15.9 °C 4.9 °C 1014.7 hPa SSW 5.0 km/h 3.7 km/h 48% 0.0 mm CLR
20:20 15.8 °C 4.8 °C 1014.9 hPa SSW 2.3 km/h 9.5 km/h 48% 0.0 mm CLR
20:25 15.8 °C 4.2 °C 1014.9 hPa SSW 2.3 km/h 13.0 km/h 46% 0.0 mm CLR
20:30 15.8 °C 4.2 °C 1014.9 hPa SW 6.4 km/h 7.4 km/h 46% 0.0 mm CLR
20:35 15.8 °C 4.2 °C 1015.1 hPa SW 6.4 km/h 7.6 km/h 46% 0.0 mm CLR
20:40 15.7 °C 4.1 °C 1015.1 hPa SW 4.7 km/h 7.4 km/h 46% 0.0 mm CLR
20:45 15.7 °C 3.8 °C 1015.1 hPa South 4.7 km/h 7.4 km/h 45% 0.0 mm CLR
20:50 15.7 °C 3.8 °C 1015.1 hPa South 5.0 km/h 3.7 km/h 45% 0.0 mm CLR
20:55 15.6 °C 4.0 °C 1015.1 hPa South 5.0 km/h   46% 0.0 mm CLR
21:00 15.5 °C 4.5 °C 1015.1 hPa Calm     48% 0.0 mm CLR
21:05 15.3 °C 4.6 °C 1015.3 hPa Calm     49% 0.0 mm CLR
21:10 15.2 °C 4.6 °C 1015.3 hPa Calm   9.3 km/h 49% 0.0 mm CLR
21:15 14.9 °C 4.3 °C 1015.3 hPa Calm   9.3 km/h 49% 0.0 mm CLR
21:20 14.8 °C 4.4 °C 1015.4 hPa NW 5.8 km/h 9.3 km/h 50% 0.0 mm CLR
21:25 14.7 °C 4.4 °C 1015.4 hPa WNW 5.8 km/h 7.4 km/h 50% 0.0 mm CLR
21:30 14.6 °C 4.6 °C 1015.4 hPa WNW 4.7 km/h   51% 0.0 mm CLR
21:35 14.5 °C 4.5 °C 1015.5 hPa WNW 4.7 km/h   51% 0.0 mm CLR
21:40 14.4 °C 4.4 °C 1015.5 hPa Calm   3.7 km/h 51% 0.0 mm CLR
21:45 14.4 °C 4.4 °C 1015.5 hPa Calm   3.7 km/h 51% 0.0 mm CLR
21:50 14.4 °C 4.4 °C 1015.6 hPa South 3.2 km/h 9.5 km/h 51% 0.0 mm CLR
21:55 14.5 °C 4.2 °C 1015.6 hPa South 3.2 km/h 9.3 km/h 50% 0.0 mm CLR
22:00 14.6 °C 4.3 °C 1015.6 hPa South 8.0 km/h 11.3 km/h 50% 0.0 mm CLR
22:05 14.6 °C 4.3 °C 1015.8 hPa South 6.9 km/h 9.5 km/h 50% 0.0 mm CLR
22:10 14.6 °C 4.3 °C 1015.8 hPa South 6.4 km/h 7.4 km/h 50% 0.0 mm CLR
22:15 14.4 °C 4.1 °C 1015.8 hPa South 6.4 km/h 9.3 km/h 50% 0.0 mm CLR
22:20 14.3 °C 4.3 °C 1016.1 hPa South 6.4 km/h 9.3 km/h 51% 0.0 mm CLR
22:25 14.2 °C 4.2 °C 1016.1 hPa SW 6.4 km/h 8.7 km/h 51% 0.0 mm CLR
22:30 14.2 °C 4.2 °C 1016.1 hPa SW 6.9 km/h 11.1 km/h 51% 0.0 mm CLR
22:35 14.2 °C 4.2 °C 1016.3 hPa SW 6.9 km/h 11.1 km/h 51% 0.0 mm CLR
22:40 14.2 °C 4.5 °C 1016.3 hPa WSW 7.6 km/h 13.0 km/h 52% 0.0 mm CLR
22:45 14.2 °C 4.5 °C 1016.3 hPa West 7.6 km/h 11.1 km/h 52% 0.0 mm CLR
22:50 14.2 °C 4.5 °C 1016.3 hPa SW 7.6 km/h 9.3 km/h 52% 0.0 mm CLR
22:55 14.1 °C 4.4 °C 1016.3 hPa WSW 7.6 km/h 7.6 km/h 52% 0.0 mm CLR
23:00 14.1 °C 4.3 °C 1016.3 hPa SW 4.8 km/h 9.7 km/h 52% 0.0 mm CLR
23:05 13.8 °C 4.1 °C 1016.4 hPa SE 5.8 km/h 7.4 km/h 52% 0.0 mm CLR
23:10 13.7 °C 4.3 °C 1016.4 hPa South 5.0 km/h 9.3 km/h 53% 0.0 mm CLR
23:15 13.6 °C 4.4 °C 1016.4 hPa SW 5.0 km/h 7.4 km/h 54% 0.0 mm CLR
23:20 13.4 °C 4.6 °C 1016.5 hPa SSW 6.9 km/h 9.3 km/h 55% 0.0 mm CLR
23:25 13.4 °C 4.6 °C 1016.5 hPa SW 6.9 km/h 8.7 km/h 55% 0.0 mm CLR
23:30 13.3 °C 4.7 °C 1016.5 hPa SSW 6.9 km/h 8.4 km/h 56% 0.0 mm CLR
23:35 13.2 °C 4.6 °C 1016.5 hPa South 6.9 km/h 11.1 km/h 56% 0.0 mm CLR
23:40 13.2 °C 4.8 °C 1016.5 hPa SSW 6.9 km/h 9.3 km/h 57% 0.0 mm CLR
23:45 13.1 °C 4.8 °C 1016.5 hPa SW 6.9 km/h 9.3 km/h 57% 0.0 mm CLR
23:50 13.1 °C 4.8 °C 1016.7 hPa SSW 6.9 km/h 7.4 km/h 57% 0.0 mm CLR
23:55 12.9 °C 4.6 °C 1016.7 hPa South 6.9 km/h 11.1 km/h 57% 0.0 mm CLR
Murcia-Puente Tocinos, España
Compliments of Weather Underground - 2.75 mb

La estación de MeteoMurcia.com, publica sus datos en los siguientes proyectos:

Weather Underground PWS IMURCIAP2 Meteoclimatic www.awekas.at

W3Counter
Web Analytics